[Date Prev][Date Next][Thread Prev][Thread Next][Date Index][Thread Index]

[jamsat-news:1128] jas2info #152



========================   最新情報   ==============================

        Last updated :Thu.22-Jul.-1999 21:45 (JST) #152

====================================================================
   
     衛星情報 FOシリーズの軌道要素、テレメトリ、QSOの状況等を
   まとめてみました.

  1)  FO−29(ふじ3号)は、7月27日(火)12:43(JST)の
     パスはJARLのホムページの「ふじ3号」のスケジュールのとうりJA
  アナログモードで運用されていました. 
       
 ■ 軌道要素1:「jamsat−keps:906」より 
              SB KEPS @ AMSAT  $ORB99205.N
       2Line Orbital Elements 99205.AMSAT

  HR AMSAT ORBITAL ELEMENTS FOR AMATEUR SATELLITES IN NASA FORMAT
  FROM WA5QGD FORT WORTH,TX July 24, 1999
  SEND SUBSCRIBE/UNSUBSCRIBE TO majordomo@amsat.org ONLY
  BID: ORB99205.N

  DECODE 2-LINE ELSETS WITH THE FOLLOWING KEY:
 1 AAAAAU 00  0  0 BBBBB.BBBBBBBB  .CCCCCCCC  00000-0  00000-0 0  DDDZ
 2 AAAAA EEE.EEEE FFF.FFFF GGGGGGG HHH.HHHH III.IIII JJ.JJJJJJJJKKKKKZ
 KEY: A-CATALOGNUM B-EPOCHTIME C-DECAY D-ELSETNUM E-INCLINATION F-RAAN
 G-ECCENTRICITY H-ARGPERIGEE I-MNANOM J-MNMOTION K-ORBITNUM Z-CHECKSUM

 TO ALL RADIO AMATEURS BT

 FO-29
 1 24278U 96046B   99205.41573378 -.00000029  00000-0  76418-5 0  2616
 2 24278  98.5651 151.5928 0351706 357.9234   2.0429 13.52674427144844
 
 ■ 軌道要素2:「jamsat−keps:907」より                         
         SB KEPS @ AMSAT  $ORB99197.O
         Orbital Elements  99197.OSCAR

 SB KEPS @ AMSAT  $ORB99205.O
 Orbital Elements  99205.OSCAR

 HR AMSAT ORBITAL ELEMENTS FOR OSCAR SATELLITES
 FROM WA5QGD FORT WORTH,TX July 24, 1999
 SEND SUBSCRIBE/UNSUBSCRIBE TO majordomo@amsat.org ONLY
 BID: ORB99205.O
 TO ALL RADIO AMATEURS BT
 
  Satellite: FO-29
 Catalog number: 24278
 Epoch time:      99205.41573378
 Element set:     261
 Inclination:       98.5651 deg
 RA of node:       151.5928 deg
 Eccentricity:    0.0351706
 Arg of perigee:   357.9234 deg
 Mean anomaly:       2.0429 deg
 Mean motion:   13.52674427 rev/day
 Decay rate:       -2.9e-07 rev/day^2
 Epoch rev:           14484
 Checksum:              328
  
 -----------------------------------------------------------
  2)FO−29(ふじ3号)の 7月27日(火)の12:43のパスでは
  JAアナログモードで運用され、それまでの取得したテレメトリデータの
  一部分です.

  AS14522C1  27Jul99
  JST 12:45 - 112:56

 HI HO AE C7 88 55 95 76 FF 0D 00 15 A6 83 7E 48 96 93 B0 7C BF BE BC BE BB 
 HI HI AE 07 88 55 9A 76 05 0D 00 1D 9D 78 80 47 95 92 B0 AF BF BE BC BE BB 
 HI HI AE C7 88 51 1C 77 1E 0D 00 3B 99 F2 74 60 94 71 B0 92 BE BD BC BD BB 
 HI HI AE C7 88 51 1C 78 1E 0D 00 1D 98 51 74 60 93 98 B0 7C BE BD BC BD BC 
 HI HI AE C7 88 51 00 78 39 68 00 05 55 96 74 60 93 90 9F 82 BE BD BC BD BC 
 HI HI AE C7 88 51 00 78 39 68 09 04 62 4A 82 60 93 91 9F 7A BE BD BC BD BC 
 HI HI AE C7 88 51 00 78 F7 68 09 04 85 74 8B 60 93 90 B0 86 BE BD BC BD BC 
 HI HI AE C7 88 51 00 78 E8 69 09 0D 33 5E 81 60 93 91 B0 6A BE BC BC BD BC 
 HI HI AE C7 88 51 00 78 E8 69 09 0D 9C 44 8A 09 0A 28 BF 7D BE BC BC BD BC 
 HI HI AE C7 88 51 00 78 11 6C 09 18 43 5E 81 60 94 91 B0 8A BE BC BC BD BC 
 HI HI AE 07 88 51 00 7A 11 6D 09 1F 5E 29 86 60 95 92 B0 9F BD BC BC BC BC 
 HI HI AE C7 88 55 00 93 38 6D 09 1F 6B 39 8B 60 94 91 B0 8B BD BB BC BC BC 
 HI HI AE 07 88 51 00 96 40 6E 09 16 36 37 7F 60 93 90 B0 A4 BD BB BB BC BC 
  
  AS14509P  26Jul99

 cmd:8J1JCS>BEACON [07/26/99  13:39:08]:
 JAS-2    '97/07/26 04:37:47
 9C 03 63 08 00 74 00 00 00 00
 00 00 87 EB 0A 8D 60 94 90 B0
 AA 52 A8 02 E3 BB BF C0 BD BD
         
 8J1JCS>BEACON [07/26/99  13:39:09]:D5 02 00 09 00 80 EE 40 00 00
 EB 71 43 27 2E 8D 90 7D 8A 81
 00 00 00 B2 7A B3 F7 00 00 00
                                      
 8J1JCS>BEACON [07/26/99  13:39:10]:
 User not connect.
                                                     
 8J1JCS>BEACON [07/26/99  13:39:11]:
 Total    2 File(s)

  No.  Date  UTC    To    From   Size   Subject
 0005 07/25 19:48 ALL    N5ZNL        0 
 0001 07/24 11:55 ALL
 8J1JCS>BEACON [07/26/99  13:39:12]:    HB9SKA      76 73 de HB9SKA
                                                     
 8J1JCS>BEACON [07/26/99  13:41:08]:
 JAS-2    '97/07/26 04:39:47
 9C 03 63 08 00 74 00 00 00 00
 00 00 87 EB 46 94 60 95 92 B0
 AA 52 A8 02 C9 BB BE BF BC BC
         
 8J1JCS>BEACON [07/26/99  13:41:09]:D5 02 00 09 00 80 EE 40 00 00
 89 71 3F 4D 25 97 9B 7D 8A 82
 00 00 00 B1 7C B3 F7 00 00 00
                                      
 8J1JCS>BEACON [07/26/99  13:41:10]:
 User not connect.
                                                     
 8J1JCS>BEACON [07/26/99  13:41:11]:
 Total    2 File(s)

 No.  Date  UTC    To    From   Size   Subject
 0005 07/25 19:48 ALL    N5ZNL        0 
 0001 07/24 11:55 ALL
 8J1JCS>BEACON [07/26/99  13:41:12]:    HB9SKA      76 73 de HB9SKA
                                                     
 8J1JCS>BEACON [07/26/99  13:43:08]:
 JAS-2    '97/07/26 04:41:47
 9C 03 63 08 00 74 00 00 00 00
 00 00 87 EB 82 95 60 94 91 B0
 AA 52 A8 02 E3 BC BE BF BC BC
         
 8J1JCS>BEACON [07/26/99  13:43:09]:D5 02 00 09 00 80 EE 40 00 00
 B4 70 3B 5F 60 9A 9E 7F 8A 82
 00 00 00 B1 7D B3 F7 00 00 00
                                      
 8J1JCS>BEACON [07/26/99  13:43:10]:
 User not connect.
                                                     
 8J1JCS>BEACON [07/26/99  13:43:11]:
 Total    2 File(s)

  No.  Date  UTC    To    From   Size   Subject
 0005 07/25 19:48 ALL    N5ZNL        0 
 0001 07/24 11:55 ALL
 8J1JCS>BEACON [07/26/99  13:43:12]:    HB9SKA      76 73 de HB9SKA
                                                     
 8J1JCS>BEACON [07/26/99  13:45:08]:
 JAS-2    '97/07/26 04:43:47
 9C 03 63 08 00 74 00 00 00 00
 00 00 87 EB BE 8C 60 93 90 B0
 AA 52 A8 02 E3 BC BE BF BC BC
         
 8J1JCS>BEACON [07/26/99  13:45:09]:D5 02 00 09 00 80 EE 40 00 00
 24 70 31 77 66 9D A1 80 8A 83
 00 00 00 B0 7E B3 F7 00 00 00
                                      
 8J1JCS>BEACON [07/26/99  13:45:10]:
 User not connect.
                                                     
 8J1JCS>BEACON [07/26/99  13:45:11]:
 Total    2 File(s)

  No.  Date  UTC    To    From   Size   Subject
 0005 07/25 19:48 ALL    N5ZNL        0 
 0001 07/24 11:55 ALL
 8J1JCS>BEACON [07/26/99  13:45:12]:    HB9SKA      76 73 de HB9SKA
                                                     
 8J1JCS>BEACON [07/26/99  13:47:08]:
 JAS-2    '97/07/26 04:45:47
 9C 03 63 08 00 74 00 00 00 00
 00 00 87 EB FA 87 60 95 92 B0
 AA 52 A9 02 E3 BC BE BE BB BC
         
 8J1JCS>BEACON [07/26/99  13:47:09]:D5 02 00 09 00 80 EE 40 00 00
 04 70 20 7D 66 9E A2 80 8A 83
 00 00 00 B0 7F B3 F7 00 00 00
                                      
 8J1JCS>BEACON [07/26/99  13:47:10]:
 User not connect.
                                                     
 8J1JCS>BEACON [07/26/99  13:47:11]:
 Total    2 File(s)

   No.  Date  UTC    To    From   Size   Subject
 0005 07/25 19:48 ALL    N5ZNL        0 
 0001 07/24 11:55 ALL
 8J1JCS>BEACON [07/26/99  13:47:12]:    HB9SKA      76 73 de HB9SKA
                                                     
 8J1JCS>BEACON [07/26/99  13:49:08]:
 JAS-2    '97/07/26 04:47:47
 9C 03 63 08 00 74 00 00 00 00
 00 00 87 EC 36 8D 60 94 92 B0
 AA 52 A8 02 E3 BC BD BE BB BB
         
 8J1JCS>BEACON [07/26/99  13:49:09]:D5 02 00 09 00 80 EE 40 00 00
 FF 6F 13 7A 62 9E A2 81 89 84
 00 00 00 AF 7F B3 F7 00 00 00
                                      
 8J1JCS>BEACON [07/26/99  13:49:10]:
 User not connect.
                                                     
 8J1JCS>BEACON [07/26/99  13:49:11]:
 Total    2 File(s)

  No.  Date  UTC    To    From   Size   Subject
 0005 07/25 19:48 ALL    N5ZNL        0 
 0001 07/24 11:55 ALL
 8J1JCS>BEACON [07/26/99  13:49:13]:    HB9SKA      76 73 de HB9SKA
                                                     
 8J1JCS>BEACON [07/26/99  13:51:08]:
 JAS-2    '97/07/26 04:49:47
 9C 03 63 08 00 74 00 00 00 00
 00 00 87 EC 72 85 60 93 90 B0
 AA 52 A8 01 E3 BC BD BD BA BB
         
 8J1JCS>BEACON [07/26/99  13:51:09]:D5 02 00 09 00 80 EE 40 00 00
 10 70 F7 6A 61 9E A2 81 89 84
 00 00 00 AE 80 B3 F7 00 00 00
                                      
 8J1JCS>BEACON [07/26/99  13:51:10]:
 User not connect.
                                                     
 8J1JCS>BEACON [07/26/99  13:51:11]:
 Total    2 File(s)

  No.  Date  UTC    To    From   Size   Subject
 0005 07/25 19:48 ALL    N5ZNL        0 
 0001 07/24 11:55 ALL
 8J1JCS>BEACON [07/26/99  13:51:13]:    HB9SKA      76 73 de HB9SKA                                 
     
 3)テレメトリ換算値例  
  
  上記JAアナログモードテレメトリのAS14522C1  27Jul99
  JST 12:45 - 112:56の最後の行の換算値例
  
 テレメトリ   内   容    換算値   単 位 
 3C	磁気センサーZ軸=	26470.6	nT
 3D	磁気センサX軸	=	26960.8	nT
 4A	太陽電池発生電流=	 1245.1	mA
 4B	B充放電電流	=	 -118.4	mA
 4C	B端子電圧	=	   15.8	V
 4D	B中間端子電圧	=	    6.9	V
 5A	バス電圧	=	   17.3	V
 5B	JTA送信電力	=	  967.9	mW
 5C 	構体温度1	=	    8.5	℃
 5D	構体温度2	=	    9.3	℃
 6A	構体温度3	=	    9.3	℃
 6B	構体温度4	=	    8.9	℃
 6C	Bセル温度	=	    8.9	℃
 
  *計算処理は OFFICE 97 を使用.
  
 ===================================================================================
  4)FO−20(ふじ2号)のCWテレメトリは6月15日(火)18:56(JST)の
     パスではテレメトリーが単一トーンの連続音から唸りを伴った連続音、さらにゆらぎの
     ある信号になり、いままでより若干信号が弱くなっていました.

 -----------------------------    FO-20 軌道要素   ----------------------------------
 
 ■ 軌道要素1 :出典は「ふじ3号」に同じ.
  
  FO-20
 1 20480U 90013C   99203.03262857 -.00000009  00000-0  42397-4 0 01589
 2 20480 099.0218 031.1166 0541116 085.5934 280.6759 12.83254503442803
 
 ■ 軌道要素2 :出典は「ふじ3号」に同じ.
               
  Satellite: FO-20
 Catalog number: 20480
 Epoch time:      99203.03262857
 Element set:    0158
 Inclination:      099.0218 deg
 RA of node:       031.1166 deg
 Eccentricity:    0.0541116
 Arg of perigee:   085.5934 deg
 Mean anomaly:     280.6759 deg
 Mean motion:   12.83254503 rev/day
 Decay rate:       -9.0e-08 rev/day^2
 Epoch rev:           44280
 Checksum:              295
 
   ==================================================================================

 5)JARL のホームページに運用予定が記載されていましたのでご紹介します.
       ( http://www.jarl.or.jp/Japanese/3_Fuji/uy.htm )

        ■ ふじ3号/FO−29 ■  
  
   *** 運用予定について ***
    
